FALCON 9 R/B (59599 NORAD) Tracking and Keplerian Element Data

This shows tracking and keplerian element data for the satellite.

Feedback or suggestion? Click here.




ElementValue
Catalog59599
NameFALCON 9 R/B
Epoch Orbit13
Epoch Day124.64014828
Epoch Year2024
RAAN122.7328
Inclination54.6609
Eccentricity0.0001455
Argument of Perigee274.4703
Mean Anonmoly129.1537
Mean Motion1.73014066
Decay Rate7.7E-07
L11 59599U 24079B 24124.64014828 .00000077 00000+0 00000+0 0 9997
L22 59599 54.6609 122.7328 0001455 274.4703 129.1537 1.73014066 136



Live tracking and technical data element details for FALCON 9 R/B (NORAD 59599). FALCON 9 R/B can be tracked NOW for your location showing map with azimuth and elevation plus other details from your city location.







IsCatalogInMostPopularTable: catalog: 59599, numindb: 12
Update: records affected: 1



GetName: 59599 FALCON 9 R/B

Hit Count: updated at: Fri, 14 Jun 2024 18:04:43 GMT